NOAA NWS Hourly Roundups by Site

Regional Weather Roundup for Omaha, NE

To Select Another Site Choose from List

Select Site:  

000
ASUS43 KOAX 032210
RWRNE

WEATHER ROUNDUP FOR NEBRASKA
NATIONAL WEATHER SERVICE OMAHA NE
500 PM CDT WED JUN 03 2020

NOTES: SATELLITE DATA IS BEING USED TO AUGMENT CLOUD COVER ABOVE
       12000 FEET.
       "FAIR" INDICATES FEW OR NO CLOUDS BELOW 12,000 FEET WITH NO
       SIGNIFICANT WEATHER AND/OR OBSTRUCTIONS TO VISIBILITY.


NEZ001>004-019>022-054>056-032300-
NEBRASKA PANHANDLE

CITY           SKY/WX    TMP DP  RH WIND       PRES   REMARKS
SCOTTSBLUFF    FAIR      88  39  17 NW33G43   29.93S
ALLIANCE       FAIR      84  49  29 W10       29.90F
CHADRON        FAIR      90  41  18 NW15G25   29.86F
GORDON         FAIR      87  44  22 NW17G23   29.88F
KIMBALL        FAIR      81  41  24 SW10      30.01F
SIDNEY         FAIR      81  43  26 SW24G35   29.96R
$$

NEZ057>060-069>072-079>082-032300-
SOUTHWEST NEBRASKA

CITY           SKY/WX    TMP DP  RH WIND       PRES   REMARKS
NORTH PLATTE   FAIR      88  61  40 SW14      29.84F
IMPERIAL       FAIR      91  55  29 VRB6      29.87F
LEXINGTON      FAIR      87  59  38 SW8G17    29.85F
MCCOOK         FAIR      89  60  37 S10       29.85F
OGALLALA       FAIR      91  49  23 CALM      29.87F
$$

NEZ005>010-023>029-035>040-094-032300-
NORTH CENTRAL NEBRASKA

CITY           SKY/WX    TMP DP  RH WIND       PRES   REMARKS
VALENTINE      FAIR      83  62  49 E9        29.83F THUNDER
AINSWORTH      FAIR      82  64  54 S5        29.83F
BROKEN BOW     FAIR      88  58  36 SE8       29.85F
O`NEILL        PTSUNNY   83  56  40 CALM      29.88S
ORD            FAIR      88  60  38 S8        29.83F
THEDFORD       FAIR      91  55  29 W9        29.83F
$$

NEZ041-046>049-061>064-073>077-083>087-032300-
SOUTH CENTRAL NEBRASKA

CITY           SKY/WX    TMP DP  RH WIND       PRES   REMARKS
GRAND ISLAND   FAIR      94  54  25 SW8       29.83F HX  92
AURORA         FAIR      92  54  27 SE5       29.82F HX  90
HASTINGS       FAIR      91  58  32 W5        29.83F HX  90
HEBRON         FAIR      92  57  30 CALM      29.81F HX  91
HOLDREGE       FAIR      89  59  35 SW8       29.85F
KEARNEY        FAIR      90  61  37 S7        29.84F HX  90
YORK           FAIR      90  61  37 CALM      29.81F
$$

NEZ011>018-030>034-042>045-032300-
NORTHEAST NEBRASKA

CITY           SKY/WX    TMP DP  RH WIND       PRES   REMARKS
NORFOLK        FAIR      91  56  30 NE5       29.83F
ALBION         FAIR      87  57  35 E7        29.83F
BLAIR          FAIR      91  55  29 E3        29.80F
COLUMBUS       FAIR      91  52  26 VRB3      29.82F
FREMONT        FAIR      92  60  34 S6        29.80F HX  91
TEKAMAH        FAIR      93  54  26 E7        29.79F HX  91
WAYNE          FAIR      92  49  23 N3        29.82F
$$

NEZ050>053-065>068-078-088>093-032300-
SOUTHEAST NEBRASKA

CITY           SKY/WX    TMP DP  RH WIND       PRES   REMARKS
LINCOLN        FAIR      92  58  31 VRB7      29.79F HX  91
OMAHA EPPLEY   FAIR      93  54  26 VRB3      29.78F HX  91
BEATRICE       FAIR      90  64  42 SE6       29.80F HX  91
FALLS CITY     FAIR      89  70  53 VRB3      29.78F HX  94
NEBRASKA CITY  FAIR      89  66  45 CALM      29.80F HX  91
PLATTSMOUTH    FAIR      91  62  37 E7        29.79F HX  91
$$

NEZ044-045-051>053-067-032300-
OMAHA AREA

CITY           SKY/WX    TMP DP  RH WIND       PRES   REMARKS
OMAHA EPPLEY   FAIR      93  54  26 VRB3      29.78F HX  91
BLAIR          FAIR      91  55  29 E3        29.80F
FREMONT        FAIR      92  60  34 S6        29.80F HX  91
MILLARD        FAIR      93  57  30 SE3       29.78F HX  91
OFFUTT AFB     FAIR      93  60  33 SE5       29.78F HX  92
PLATTSMOUTH    FAIR      91  62  37 E7        29.79F HX  91
WAHOO          FAIR      91  55  28 S3        29.80F
$$


 

View Past Reports for Omaha, NE.

Products Courtesy of NOAA-NWS
NWS Information Parsing Script by Ken True at Saratoga Weather - Script by SE Lincoln Weather.